Location: UFOWorks Observatory
(42.1050°N, 72.2350°W)
Time: 02:45:36

ISS - Visible Passes

Search period start: 25 October 2016 00:00
Search period end: 04 November 2016 00:00
Orbit: 400 x 409 km, 51.6° (Epoch: 25 October)

Date Brightness Start Highest point End Pass type
(mag) Time Alt. Az. Time Alt. Az. Time Alt. Az.
31 Oct -0.4 06:26:49 10° S 06:29:05 18° SE 06:31:20 10° E visible
02 Nov -2.0 06:17:18 10° SSW 06:20:23 40° SE 06:23:29 10° ENE visible
03 Nov -1.0 05:26:48 17° SSE 05:28:04 21° SE 05:30:38 10° E visible
